Regional Weather Roundup
Issued by NWS

Home | Current Version | Previous Version | Graphics & Text | Print | Product List | Glossary On
Versions: 1 2 3 4 5 6 7 8 9 10 11 12 13 14 15 16 17 18 19 20 21 22 23 24 25 26 27 28 29 30 31 32 33 34 35 36 37 38 39 40 41 42 43 44 45 46 47 48 49 50
000
ASUS45 KABQ 071501
RWRNM
NEW MEXICO REGIONAL WEATHER ROUNDUP
NATIONAL WEATHER SERVICE ALBUQUERQUE NM
900 AM MDT TUE JUL 07 2015

NOTE: "FAIR" MEANS FEW OR NO CLOUDS BELOW 12,000 FEET AGL WITH NO
       SIGNIFICANT WEATHER OR OBSTRUCTIONS TO VISION.

      THIS PRODUCT IS RELEASED AS TWO VERSIONS.  ONE VERSION NEAR
      THE TOP OF THE HOUR CONTAINING PRELIMINARY DATA FROM ALBUQUERQUE
      AND OTHER STATIONS.  A FINAL VERSION WITH ADDITIONAL DATA IS
      ISSUED ABOUT 10 MINUTES AFTER THE HOUR.

NMZ501-503-504-510>518-071600-
NORTHWEST PLATEAU/NORTHCENTRAL MOUNTAINS

CITY           SKY/WX    TMP DP  RH WIND       PRES   REMARKS
FARMINGTON     SUNNY     70  57  63 SE8       30.19R
SANTA FE       CLOUDY    60  56  86 SW8       30.28R
TAOS           CLOUDY    59  48  67 W6        30.33S
ANGEL FIRE     CLOUDY    55  50  86 CALM      30.39F

$$
NMZ402-403-502-505>509-071600-
WESTCENTRAL MOUNTAINS/SOUTHWEST MOUNTAINS

CITY           SKY/WX    TMP DP  RH WIND       PRES   REMARKS
GALLUP         SUNNY     68  54  60 S12       30.26S
SILVER CITY      N/A     73  55  53 S5        30.23R

$$
NMZ407-409-411-412-071600-
SOUTHERN DESERTS

CITY           SKY/WX    TMP DP  RH WIND       PRES   REMARKS
DEMING         MOSUNNY   77  58  51 NE15      30.14R
ALAMOGORDO     SUNNY     75  59  57 S14       30.13S
T OR C         MOSUNNY   70  60  70 N15       30.18S

$$
NMZ519>523-071600-
CENTRAL VALLEYS/CENTRAL HIGHLANDS

CITY           SKY/WX    TMP DP  RH WIND       PRES   REMARKS
ALBUQUERQUE    MOSUNNY   67  57  70 E9        30.24S
DOUBLE EAGLE   PTSUNNY   64  57  77 W3        30.27S
MORIARTY ARPT    N/A     61  55  80 CALM      30.31S
CLINES CORNERS CLOUDY    56  54  93 E9        30.31R
BELEN          PTSUNNY   67  59  73 W10       30.23S
SOCORRO        NOT AVBL

$$
NMZ524>526-539-540-071600-
SOUTHCENTRAL MOUNTAINS

CITY           SKY/WX    TMP DP  RH WIND       PRES   REMARKS
RUIDOSO        NOT AVBL

$$
NMZ527>531-071600-
NORTHEAST HIGHLANDS/NORTHEAST PLAINS

CITY           SKY/WX    TMP DP  RH WIND       PRES   REMARKS
LAS VEGAS      LGT RAIN  57  54  89 CALM      30.33F
RATON          CLOUDY    59  54  83 CALM      30.28F HAZE
CLAYTON        CLOUDY    61  53  75 NE13      30.26R HAZE

$$
NMZ532>537-071600-
EASTCENTRAL PLAINS

CITY           SKY/WX    TMP DP  RH WIND       PRES   REMARKS
TUCUMCARI      CLOUDY    66  56  70 NE12      30.21R HAZE
CANNON AFB     LGT RAIN  61  59  94 NE17      30.19S
CLOVIS AIRPORT CLOUDY    63  59  88 N16G23      N/A

$$
NMZ028-029-538-071600-
SOUTHEAST PLAINS

CITY           SKY/WX    TMP DP  RH WIND       PRES   REMARKS
ROSWELL        CLOUDY    69  63  81 N9        30.15S
ARTESIA        CLOUDY    68  68 100 N13       30.15S
CARLSBAD       CLOUDY    73  66  78 N15       30.10S
HOBBS          CLOUDY    68  68 100 N13       30.11R FOG


$$



USA.gov is the U.S. government's official web portal to all federal, state and local government web resources and services.